Regional Weather Roundup
Issued by NWS

Home | Current Version | Previous Version | Graphics & Text | Print | Product List | Glossary On
Versions: 1 2 3 4 5 6 7 8 9 10 11 12 13 14 15 16 17 18 19 20 21 22 23 24 25 26 27 28 29 30 31 32 33 34 35 36 37 38 39 40 41 42 43 44 45 46 47 48 49 50
000
ASUS43 KMPX 230301
RWRMN
WEATHER ROUNDUP FOR MINNESOTA
NATIONAL WEATHER SERVICE TWIN CITIES/CHANHASSEN MN
1000 PM CDT TUE JUL 22 2014


NOTE: "FAIR" INDICATES FEW OR NO CLOUDS BELOW 12,000 FEET WITH NO
SIGNIFICANT WEATHER AND/OR OBSTRUCTIONS TO VISIBILITY. N/A MEANS
CURRENT SKY AND/OR WEATHER CONDITIONS ARE NOT AVAILABLE.

MNZ060>063-068>070-230400-
   Twin Cities Metro

CITY           SKY/WX    TMP DP  RH WIND       PRES   REMARKS
TWIN CITIES    CLEAR     75  53  46 N7        30.13R
ST PAUL          N/A     73  55  53 N10       30.12R
CRYSTAL        CLEAR     73  54  51 N7        30.12R
BLAINE         CLEAR     72  57  60 N7        30.14R
LAKEVILLE      CLEAR     66  57  72 NW5       30.13R
EDEN PRAIRIE   CLEAR     71  57  61 N6        30.12R
SOUTH ST PAUL  CLEAR     74  54  49 NW7       30.12R
LAKE ELMO      FAIR      70  55  60 N5        30.13S
$$
MNZ001>005-007-008-013>017-022>024-027-028-230400-
   Northwest Minnesota

CITY           SKY/WX    TMP DP  RH WIND       PRES   REMARKS
BEMIDJI        CLEAR     62  54  73 NW3       30.20R
HALLOCK        CLEAR     64  59  82 N3        30.21R
ROSEAU         CLEAR     63  55  77 N5        30.21R
THIEF RVR FALL CLEAR     66  57  72 NW6       30.22R
CROOKSTON      CLEAR     64  59  82 N3        30.23R
FOSSTON        CLEAR     61  54  77 NW5       30.22R
DETROIT LAKES  CLEAR     64  57  77 N3        30.24R
MOORHEAD       CLEAR     66  64  94 CALM      30.24R
PARK RAPIDS    CLEAR     61  56  83 NW6       30.21R
$$
MNZ006-009>011-018-025>026-230400-
   North Central Minnesota

CITY           SKY/WX    TMP DP  RH WIND       PRES   REMARKS
BAUDETTE       CLEAR     63  57  81 NW5       30.19S
FLAG ISLAND    CLEAR     68  55  64 W8        30.18S
INTL FALLS     CLOUDY    64  56  75 NW6       30.16R
WASKISH        CLEAR     68  55  64 NW5       30.19R
BIG FORK       CLEAR     59  55  88 W1        30.18S
LONGVILLE      CLEAR     59  57  94 CALM      30.19R
GRAND RAPIDS   CLEAR     59  54  82 CALM      30.18R
CRANE LAKE     MOCLDY    61  57  88 CALM      30.17R
ORR            PTCLDY    59  54  82 CALM      30.14S
COOK           CLEAR     61  57  88 CALM      30.17R
$$
MNZ012-019>021-037-230400-
   Northeast Minnesota

CITY           SKY/WX    TMP DP  RH WIND       PRES   REMARKS
DULUTH         CLEAR     66  54  65 N5        30.16R
ELY            PTCLDY    59  55  88 W3        30.15R
HIBBING        CLEAR     58  54  86 NW3       30.17R
DULUTH HARBOR  CLEAR     66  55  68 E5        30.14R
TWO HARBORS    CLEAR     63  55  77 NW3       30.13R
SILVER BAY     CLEAR     57  57 100 CALM      30.12R
GRAND MARAIS     N/A     52  49  89 CALM      30.11R
G MARAIS ARPRT PTCLDY    55  52  88 CALM      30.16R
$$
MNZ029>031-032-039>041-046>048-054>057-064-230400-
   West Central Minnesota

CITY           SKY/WX    TMP DP  RH WIND       PRES   REMARKS
FERGUS FALLS   CLEAR     64  55  72 N6        30.23R
WHEATON        CLEAR     64  57  77 N3        30.25R
MORRIS         CLEAR     63  57  82 N6        30.21R
ALEXANDRIA     CLEAR     67  58  72 N5        30.23R
ELBOW LAKE     FAIR      65  59  81 N6        30.22R
WADENA         CLEAR     61  55  82 NW5       30.21R
GLENWOOD       CLEAR     64  57  77 NW3       30.22R
APPLETON       CLEAR     64  57  77 N7        30.21R
BENSON         CLEAR     63  57  82 N5        30.21R
ORTONVILLE     CLEAR     66  55  68 N8        30.22R
MADISON        CLEAR     72  57  60 N9        30.22R
WILLMAR        FAIR      68  55  64 NW7       30.21R
$$
MNZ033>034-036-042>043-049>051-058-059-230400-
   Central Minnesota

CITY           SKY/WX    TMP DP  RH WIND       PRES   REMARKS
ST CLOUD       CLEAR     68  55  63 NW5       30.17R
SAUK CENTRE    FAIR      66  55  69 N5        30.20R
PAYNESVILLE    HVY RAIN  63  53  70 W5        30.19R
AITKIN         CLEAR     61  54  77 CALM      30.17R
PINE RIVER     MOCLDY    63  55  77 CALM      30.23R
BRAINERD       CLEAR     63  54  72 CALM      30.20R
STAPLES        CLEAR     63  55  77 NW3       30.21R
LONG PRAIRIE   FAIR      63  54  72 CALM      30.21R
LITTLE FALLS   CLEAR     64  54  68 CALM      30.19R
LITCHFIELD     CLEAR     68  55  64 NW6       30.18R
BUFFALO        CLEAR     71  55  56 N5        30.16R
MAPLE LAKE     CLEAR     70  57  63 N5        30.17R
$$
MNZ037-044-045-052-053-230400-
   East Central Minnesota

CITY           SKY/WX    TMP DP  RH WIND       PRES   REMARKS
PRINCETON      CLEAR     66  57  72 NW3       30.16R
MORA           CLEAR     63  55  77 CALM      30.17R
CAMBRIDGE      CLEAR     70  55  60 CALM      30.13S
RUSH CITY      CLEAR     66  57  72 CALM      30.14R
MOOSE LAKE     PTCLDY    61  57  88 CALM      30.14R
HINCKLEY       FAIR      64  57  77 NW6       30.15R
CLOQUET        CLEAR     64  54  68 CALM      30.17R
MCGREGOR       CLEAR     64  55  72 CALM      30.18R
$$
MNZ071>073-080-081-089-090-097-098-230400-
   Southwest Minnesota

CITY           SKY/WX    TMP DP  RH WIND       PRES   REMARKS
MONTEVIDEO     CLEAR     66  55  68 N7        30.21R
GRANITE FALLS  CLEAR     66  58  74 NW7       30.22R
CANBY          CLEAR     66  57  72 NW3       30.23R
MARSHALL       CLEAR     64  57  77 NW7       30.21R
REDWOOD FALLS  CLEAR     71  57  61 NW7       30.18R
OLIVIA         CLEAR     68  55  64 NW5       30.18R
PIPESTONE      CLEAR     70  55  60 N3        30.23R
WINDOM         CLEAR     66  55  68 NW8       30.19R
WORTHINGTON    CLEAR     64  55  72 NW8       30.22R
JACKSON        CLEAR     68  55  64 N5        30.19R
TRACY          CLEAR     67  58  72 NW7       30.22R
SLAYTON        CLEAR     65  57  76 CALM      30.23R
$$
MNZ065>067-074>077-082>085-091>093-230400-
   South Central Minnesota

CITY           SKY/WX    TMP DP  RH WIND       PRES   REMARKS
MANKATO        CLEAR     70  55  60 N8        30.14R
NEW ULM        CLEAR     70  57  64 NW8       30.16R
ST JAMES       CLEAR     66  57  72 NW6       30.17R
FAIRMONT       CLEAR     70  55  60 N9        30.16R
GLENCOE        PTCLDY    70  55  59 NW7       30.15R
FARIBAULT      CLEAR     73  54  49 NW6       30.14R
OWATONNA       CLEAR     70  57  64 N6        30.13S
WASECA         CLEAR     64  54  68 NW7       30.15R
ALBERT LEA     CLEAR     70  61  73 NW3       30.13R
$$
MNZ078>079-086>088-094>096-230400-
   Southeast Minnesota

CITY           SKY/WX    TMP DP  RH WIND       PRES   REMARKS
ROCHESTER      CLEAR     68  62  81 NW8       30.13R
RED WING       CLEAR     72  59  64 N6        30.10R
STANTON        CLEAR     70  58  65 N6        30.11S
DODGE CENTER   CLEAR     70  61  73 N7        30.13R
WINONA         CLEAR     73  64  73 NW5       30.08R
AUSTIN         CLEAR     72  61  68 N6        30.12R
PRESTON        CLEAR     68  65  90 N6        30.11R
$$
ABBREVIATIONS USED IN REMARKS
   TC - TEMPERATURES IN CELSIUS
  WCI - WIND CHILL INDEX
   HX - HEAT INDEX
  VSB - VISIBILITY
$$


USA.gov is the U.S. government's official web portal to all federal, state and local government web resources and services.